Location: Kershaw
(34.5481°N, 80.5823°W)
Time: 15:48:26
(UTC+00:00)

Vanguard 1 Rocket - Pass Details

Date: 06 October 2022
Orbit: 650 x 4225 km, 34.3° (Epoch: 08 December)

Event Time Altitude Azimuth Distance (km) Brightness Sun altitude
Rises 04:07:13 0° 279° (W) 7,144 12.2 -57.1°
Reaches altitude 10° 04:12:47 10° 279° (W) 5,569 11.6 -57.7°
Enters shadow 04:18:55 26° 277° (W) 3,719 10.5 -58.2°
Maximum altitude 04:27:17 78° 196° (SSW) 1,636 - -58.9°
Drops below altitude 10° 04:34:26 10° 111° (ESE) 2,917 - -59.4°
Sets 04:36:29 0° 110° (ESE) 3,633 - -59.5°
